CSN8824 ZLXY-ZBAD

Flight info

Callsign CSN8824
Flight time 1h 16m
Altitude 39100
Route WJC9X WJC G212 BELAX BELAX6M
Aircraft B77W/H-SDE1E2E3FGHIJ2J3J4J5M1RWXY/LB1D1

Departure

Time 2026-05-06 09:37
Airport Xi'an Xianyang International Airport (ZLXY)

Arrival

Time 2026-05-06 10:53
Airport Beijing Daxing International Airport (ZBAD)
Time Latitude Longitude Altitude Speed Heading
2026-05-06 09:18 34.44130 108.75326 1582 ft 0 kts 126°
2026-05-06 09:20 34.44131 108.75326 1582 ft 1 kts 126°
2026-05-06 09:20 34.44138 108.75314 1582 ft 2 kts 124°
2026-05-06 09:21 34.44145 108.75298 1582 ft 2 kts 111°
2026-05-06 09:21 34.44149 108.75281 1582 ft 2 kts 99°
2026-05-06 09:21 34.44150 108.75264 1582 ft 2 kts 88°
2026-05-06 09:21 34.44148 108.75246 1582 ft 2 kts 76°
2026-05-06 09:22 34.44144 108.75230 1582 ft 2 kts 65°
2026-05-06 09:22 34.44136 108.75214 1582 ft 2 kts 53°
2026-05-06 09:22 34.44132 108.75208 1582 ft 0 kts 49°
2026-05-06 09:24 34.44135 108.75212 1582 ft 2 kts 48°
2026-05-06 09:25 34.44154 108.75237 1582 ft 5 kts 47°
2026-05-06 09:25 34.44188 108.75282 1582 ft 8 kts 49°
2026-05-06 09:25 34.44228 108.75336 1582 ft 8 kts 50°
2026-05-06 09:25 34.44266 108.75391 1582 ft 8 kts 49°
2026-05-06 09:26 34.44269 108.75395 1582 ft 8 kts 49°
2026-05-06 09:27 34.44309 108.75452 1582 ft 9 kts 50°
2026-05-06 09:27 34.44350 108.75512 1582 ft 9 kts 49°
2026-05-06 09:27 34.44400 108.75580 1582 ft 11 kts 49°
2026-05-06 09:28 34.44450 108.75649 1582 ft 11 kts 49°
2026-05-06 09:28 34.44477 108.75686 1582 ft 11 kts 49°
2026-05-06 09:29 34.44487 108.75700 1582 ft 11 kts 49°
2026-05-06 09:29 34.44538 108.75769 1582 ft 11 kts 48°
2026-05-06 09:30 34.44589 108.75839 1582 ft 11 kts 48°
2026-05-06 09:30 34.44651 108.75884 1582 ft 10 kts 357°
2026-05-06 09:30 34.44714 108.75848 1582 ft 9 kts 323°
2026-05-06 09:30 34.44766 108.75796 1582 ft 9 kts 318°
2026-05-06 09:31 34.44823 108.75768 1582 ft 9 kts
2026-05-06 09:31 34.44878 108.75806 1582 ft 9 kts 46°
2026-05-06 09:31 34.44922 108.75865 1582 ft 9 kts 49°
2026-05-06 09:31 34.44967 108.75926 1582 ft 9 kts 49°
2026-05-06 09:32 34.45011 108.75988 1582 ft 9 kts 49°
2026-05-06 09:32 34.45056 108.76051 1582 ft 9 kts 49°
2026-05-06 09:32 34.45103 108.76115 1582 ft 10 kts 48°
2026-05-06 09:32 34.45150 108.76179 1582 ft 10 kts 48°
2026-05-06 09:33 34.45198 108.76244 1582 ft 10 kts 49°
2026-05-06 09:33 34.45245 108.76310 1582 ft 10 kts 49°
2026-05-06 09:33 34.45293 108.76376 1582 ft 10 kts 49°
2026-05-06 09:33 34.45341 108.76443 1582 ft 10 kts 49°
2026-05-06 09:34 34.45385 108.76505 1582 ft 2 kts 49°
2026-05-06 09:34 34.45399 108.76524 1582 ft 4 kts 47°
2026-05-06 09:34 34.45437 108.76550 1582 ft 7 kts 10°
2026-05-06 09:34 34.45496 108.76523 1582 ft 10 kts 325°
2026-05-06 09:35 34.45540 108.76446 1582 ft 12 kts 274°
2026-05-06 09:35 34.45511 108.76354 1582 ft 11 kts 235°
2026-05-06 09:35 34.45461 108.76276 1582 ft 11 kts 230°
2026-05-06 09:35 34.45448 108.76259 1582 ft 0 kts 229°
2026-05-06 09:36 34.45441 108.76249 1582 ft 7 kts 229°
2026-05-06 09:36 34.45305 108.76063 1582 ft 60 kts 229°
2026-05-06 09:36 34.44867 108.75462 1583 ft 135 kts 229°
2026-05-06 09:36 34.44090 108.74380 1945 ft 197 kts 229°
2026-05-06 09:37 34.43188 108.73069 2708 ft 198 kts 239°
2026-05-06 09:37 34.42800 108.71503 3227 ft 220 kts 263°
2026-05-06 09:37 34.42622 108.69522 3858 ft 246 kts 265°
2026-05-06 09:37 34.42450 108.67407 4466 ft 262 kts 266°
2026-05-06 09:38 34.42271 108.65200 5047 ft 265 kts 266°
2026-05-06 09:38 34.42090 108.62975 5615 ft 269 kts 267°
2026-05-06 09:38 34.41908 108.60737 6174 ft 273 kts 268°
2026-05-06 09:38 34.41784 108.58408 6733 ft 273 kts 279°
2026-05-06 09:39 34.42273 108.56224 7301 ft 270 kts 297°
2026-05-06 09:39 34.43048 108.54160 7868 ft 268 kts 301°
2026-05-06 09:39 34.43858 108.52138 8425 ft 268 kts 301°
2026-05-06 09:39 34.44671 108.50105 8984 ft 268 kts 301°
2026-05-06 09:40 34.45479 108.48071 9555 ft 269 kts 301°
2026-05-06 09:40 34.46285 108.46040 10116 ft 269 kts 301°
2026-05-06 09:40 34.48821 108.43005 11203 ft 261 kts 343°
2026-05-06 09:41 34.50612 108.42722 11748 ft 261 kts
2026-05-06 09:41 34.52355 108.43392 12296 ft 266 kts 28°
2026-05-06 09:41 34.53723 108.44916 12829 ft 275 kts 50°
2026-05-06 09:41 34.54805 108.46926 13406 ft 296 kts 53°
2026-05-06 09:42 34.55944 108.49163 14008 ft 316 kts 54°
2026-05-06 09:42 34.57150 108.51503 14588 ft 336 kts 54°
2026-05-06 09:42 34.58436 108.53976 15179 ft 356 kts 54°
2026-05-06 09:42 34.59801 108.56596 15759 ft 376 kts 54°
2026-05-06 09:43 34.61212 108.59307 16327 ft 388 kts 54°
2026-05-06 09:43 34.62595 108.61970 16868 ft 391 kts 54°
2026-05-06 09:43 34.64097 108.64860 17433 ft 400 kts 54°
2026-05-06 09:43 34.65574 108.67706 17975 ft 405 kts 54°
2026-05-06 09:44 34.67083 108.70617 18529 ft 411 kts 55°
2026-05-06 09:44 34.68612 108.73566 19072 ft 415 kts 55°
2026-05-06 09:44 34.70168 108.76569 19620 ft 422 kts 55°
2026-05-06 09:44 34.71748 108.79622 20160 ft 427 kts 56°
2026-05-06 09:45 34.73319 108.82661 20685 ft 434 kts 55°
2026-05-06 09:45 34.74934 108.85786 21219 ft 438 kts 56°
2026-05-06 09:45 34.76577 108.88970 21757 ft 445 kts 56°
2026-05-06 09:45 34.78210 108.92135 22279 ft 448 kts 56°
2026-05-06 09:46 34.80028 108.95216 22820 ft 454 kts 47°
2026-05-06 09:46 34.82274 108.97933 23383 ft 453 kts 36°
2026-05-06 09:46 34.84833 109.00127 23942 ft 453 kts 26°
2026-05-06 09:46 34.87701 109.01790 24518 ft 453 kts 15°
2026-05-06 09:47 34.90702 109.03015 25104 ft 454 kts 13°
2026-05-06 09:47 34.93706 109.04178 25679 ft 457 kts 13°
2026-05-06 09:47 34.96773 109.05369 26266 ft 460 kts 12°
2026-05-06 09:47 34.99813 109.06554 26620 ft 468 kts 12°
2026-05-06 09:48 35.02921 109.07772 26657 ft 469 kts 13°
2026-05-06 09:48 35.06012 109.08991 26652 ft 466 kts 12°
2026-05-06 09:48 35.09113 109.10214 26657 ft 467 kts 12°
2026-05-06 09:48 35.12156 109.11416 26662 ft 466 kts 13°
2026-05-06 09:49 35.15273 109.12650 26674 ft 465 kts 12°
2026-05-06 09:49 35.18296 109.13849 26675 ft 465 kts 12°
2026-05-06 09:49 35.21359 109.15064 26679 ft 464 kts 12°
2026-05-06 09:49 35.24420 109.16280 26688 ft 465 kts 12°
2026-05-06 09:50 35.27473 109.17493 26691 ft 465 kts 12°
2026-05-06 09:50 35.30575 109.18728 26695 ft 465 kts 12°
2026-05-06 09:50 35.33626 109.19943 26689 ft 464 kts 12°
2026-05-06 09:50 35.36694 109.21167 26689 ft 464 kts 12°
2026-05-06 09:51 35.39773 109.22395 26685 ft 465 kts 12°
2026-05-06 09:51 35.42866 109.23630 26686 ft 465 kts 12°
2026-05-06 09:51 35.45940 109.24860 26675 ft 464 kts 12°
2026-05-06 09:51 35.49019 109.26091 26673 ft 465 kts 12°
2026-05-06 09:52 35.52081 109.27316 26669 ft 465 kts 12°
2026-05-06 09:52 35.55150 109.28547 26669 ft 464 kts 12°
2026-05-06 09:52 35.58206 109.29772 26672 ft 464 kts 12°
2026-05-06 09:52 35.61289 109.31010 26671 ft 464 kts 12°
2026-05-06 09:53 35.64385 109.32253 26678 ft 464 kts 12°
2026-05-06 09:53 35.67432 109.33478 26681 ft 463 kts 12°
2026-05-06 09:53 35.70519 109.34721 26682 ft 464 kts 12°
2026-05-06 09:53 35.73554 109.36064 26683 ft 467 kts 18°
2026-05-06 09:54 35.76421 109.37955 26682 ft 470 kts 28°
2026-05-06 09:54 35.79047 109.40431 26688 ft 478 kts 38°
2026-05-06 09:54 35.81330 109.43419 26690 ft 485 kts 48°
2026-05-06 09:54 35.83320 109.46734 26697 ft 485 kts 51°
2026-05-06 09:55 35.85289 109.50137 26698 ft 487 kts 51°
2026-05-06 09:55 35.87250 109.53521 26697 ft 487 kts 51°
2026-05-06 09:55 35.89214 109.56902 26704 ft 488 kts 50°
2026-05-06 09:55 35.91206 109.60326 26708 ft 488 kts 50°
2026-05-06 09:56 35.93195 109.63739 26717 ft 489 kts 50°
2026-05-06 09:56 35.95179 109.67142 26703 ft 488 kts 51°
2026-05-06 09:56 35.97133 109.70493 26706 ft 489 kts 51°
2026-05-06 09:56 35.99124 109.73910 26708 ft 489 kts 51°
2026-05-06 09:57 36.01104 109.77307 26705 ft 488 kts 51°
2026-05-06 09:57 36.03112 109.80756 26704 ft 488 kts 51°
2026-05-06 09:57 36.05084 109.84142 26709 ft 489 kts 51°
2026-05-06 09:57 36.07069 109.87556 26705 ft 489 kts 51°
2026-05-06 09:58 36.09034 109.90936 26704 ft 489 kts 51°
2026-05-06 09:58 36.11016 109.94351 26691 ft 489 kts 51°
2026-05-06 09:58 36.13000 109.97772 26693 ft 489 kts 50°
2026-05-06 09:58 36.14987 110.01199 26687 ft 489 kts 50°
2026-05-06 09:59 36.16951 110.04591 26679 ft 491 kts 51°
2026-05-06 09:59 36.18937 110.08024 26677 ft 491 kts 50°
2026-05-06 09:59 36.20940 110.11496 26669 ft 489 kts 51°
2026-05-06 09:59 36.22903 110.14902 26669 ft 492 kts 51°
2026-05-06 10:00 36.24896 110.18366 26669 ft 491 kts 50°
2026-05-06 10:00 36.26881 110.21819 26655 ft 490 kts 51°
2026-05-06 10:00 36.28860 110.25266 26668 ft 490 kts 50°
2026-05-06 10:00 36.30844 110.28722 26663 ft 490 kts 51°
2026-05-06 10:01 36.32803 110.32138 26650 ft 490 kts 51°
2026-05-06 10:01 36.34795 110.35618 26647 ft 491 kts 51°
2026-05-06 10:01 36.36780 110.39087 26647 ft 490 kts 51°
2026-05-06 10:01 36.38726 110.42492 26639 ft 490 kts 51°
2026-05-06 10:02 36.40709 110.45965 26643 ft 491 kts 51°
2026-05-06 10:02 36.42681 110.49421 26630 ft 491 kts 51°
2026-05-06 10:02 36.44657 110.52889 26636 ft 492 kts 51°
2026-05-06 10:02 36.46615 110.56328 26627 ft 491 kts 51°
2026-05-06 10:03 36.48569 110.59765 26642 ft 491 kts 51°
2026-05-06 10:03 36.50541 110.63236 26645 ft 490 kts 51°
2026-05-06 10:03 36.52454 110.66608 26651 ft 491 kts 52°
2026-05-06 10:03 36.54413 110.70061 26646 ft 491 kts 52°
2026-05-06 10:04 36.56385 110.73543 26643 ft 491 kts 52°
2026-05-06 10:04 36.58355 110.77026 26643 ft 490 kts 52°
2026-05-06 10:04 36.60299 110.80465 26669 ft 491 kts 52°
2026-05-06 10:04 36.62266 110.83949 26676 ft 491 kts 52°
2026-05-06 10:05 36.64218 110.87408 26669 ft 490 kts 52°
2026-05-06 10:05 36.66181 110.90892 26683 ft 491 kts 52°
2026-05-06 10:05 36.68133 110.94361 26675 ft 490 kts 52°
2026-05-06 10:05 36.70099 110.97855 26683 ft 491 kts 52°
2026-05-06 10:06 36.72169 111.01173 26687 ft 488 kts 46°
2026-05-06 10:06 36.74435 111.04336 26687 ft 489 kts 45°
2026-05-06 10:06 36.76711 111.07480 26690 ft 487 kts 44°
2026-05-06 10:06 36.78969 111.10599 26688 ft 487 kts 45°
2026-05-06 10:07 36.81256 111.13765 26697 ft 487 kts 45°
2026-05-06 10:07 36.83518 111.16900 26690 ft 487 kts 45°
2026-05-06 10:07 36.85797 111.20064 26684 ft 487 kts 45°
2026-05-06 10:07 36.88069 111.23222 26703 ft 490 kts 45°
2026-05-06 10:08 36.90337 111.26379 26693 ft 489 kts 45°
2026-05-06 10:08 36.92594 111.29525 26708 ft 488 kts 45°
2026-05-06 10:08 36.94854 111.32677 26692 ft 488 kts 45°
2026-05-06 10:08 36.97143 111.35874 26682 ft 488 kts 45°
2026-05-06 10:09 36.99397 111.39024 26682 ft 488 kts 45°
2026-05-06 10:09 37.01677 111.42214 26673 ft 488 kts 45°
2026-05-06 10:09 37.03925 111.45364 26672 ft 487 kts 45°
2026-05-06 10:09 37.06192 111.48543 26661 ft 489 kts 45°
2026-05-06 10:10 37.08454 111.51719 26659 ft 488 kts 44°
2026-05-06 10:10 37.10717 111.54898 26660 ft 488 kts 45°
2026-05-06 10:10 37.12965 111.58060 26660 ft 488 kts 44°
2026-05-06 10:10 37.15247 111.61272 26653 ft 489 kts 44°
2026-05-06 10:11 37.17489 111.64431 26654 ft 489 kts 44°
2026-05-06 10:11 37.19787 111.67670 26632 ft 490 kts 45°
2026-05-06 10:11 37.22049 111.70865 26633 ft 491 kts 45°
2026-05-06 10:11 37.24298 111.74059 26622 ft 492 kts 47°
2026-05-06 10:12 37.26337 111.77624 26612 ft 493 kts 57°
2026-05-06 10:12 37.27988 111.81413 26613 ft 495 kts 60°
2026-05-06 10:12 37.29583 111.85282 26628 ft 497 kts 61°
2026-05-06 10:12 37.31168 111.89150 26624 ft 497 kts 60°
2026-05-06 10:13 37.32758 111.93034 26630 ft 497 kts 61°
2026-05-06 10:13 37.34351 111.96926 26630 ft 498 kts 60°
2026-05-06 10:13 37.35945 112.00829 26632 ft 497 kts 61°
2026-05-06 10:13 37.37526 112.04700 26632 ft 498 kts 61°
2026-05-06 10:14 37.39094 112.08547 26627 ft 498 kts 61°
2026-05-06 10:14 37.40697 112.12485 26627 ft 499 kts 60°
2026-05-06 10:14 37.42279 112.16377 26618 ft 498 kts 61°
2026-05-06 10:14 37.43865 112.20283 26616 ft 499 kts 60°
2026-05-06 10:15 37.45449 112.24191 26618 ft 499 kts 61°
2026-05-06 10:15 37.47036 112.28108 26620 ft 499 kts 61°
2026-05-06 10:15 37.48634 112.32057 26614 ft 500 kts 61°
2026-05-06 10:15 37.50221 112.35987 26615 ft 500 kts 61°
2026-05-06 10:16 37.51810 112.39926 26612 ft 499 kts 60°
2026-05-06 10:16 37.53401 112.43873 26611 ft 500 kts 60°
2026-05-06 10:16 37.54970 112.47771 26610 ft 501 kts 61°
2026-05-06 10:16 37.56557 112.51717 26612 ft 501 kts 61°
2026-05-06 10:17 37.58138 112.55651 26609 ft 501 kts 60°
2026-05-06 10:17 37.59742 112.59645 26596 ft 503 kts 61°
2026-05-06 10:17 37.61309 112.63553 26609 ft 502 kts 61°
2026-05-06 10:17 37.62903 112.67534 26600 ft 503 kts 61°
2026-05-06 10:18 37.64492 112.71498 26593 ft 502 kts 61°
2026-05-06 10:18 37.66080 112.75463 26598 ft 504 kts 62°
2026-05-06 10:18 37.67675 112.79451 26595 ft 505 kts 62°
2026-05-06 10:18 37.69258 112.83415 26605 ft 505 kts 61°
2026-05-06 10:19 37.70823 112.87338 26592 ft 504 kts 61°
2026-05-06 10:19 37.72424 112.91358 26611 ft 504 kts 61°
2026-05-06 10:19 37.74003 112.95329 26615 ft 504 kts 62°
2026-05-06 10:19 37.75567 112.99268 26611 ft 504 kts 62°
2026-05-06 10:20 37.77161 113.03290 26616 ft 506 kts 61°
2026-05-06 10:20 37.78725 113.07239 26629 ft 505 kts 62°
2026-05-06 10:20 37.80297 113.11215 26636 ft 506 kts 61°
2026-05-06 10:20 37.81879 113.15220 26642 ft 506 kts 62°
2026-05-06 10:21 37.83461 113.19231 26639 ft 506 kts 62°
2026-05-06 10:21 37.85030 113.23214 26641 ft 506 kts 61°
2026-05-06 10:21 37.86607 113.27223 26647 ft 506 kts 61°
2026-05-06 10:21 37.88179 113.31220 26633 ft 507 kts 61°
2026-05-06 10:22 37.89730 113.35174 26626 ft 506 kts 61°
2026-05-06 10:22 37.91312 113.39211 26627 ft 505 kts 62°
2026-05-06 10:22 37.92863 113.43172 26618 ft 506 kts 61°
2026-05-06 10:22 37.94441 113.47208 26624 ft 506 kts 62°
2026-05-06 10:23 37.95996 113.51195 26622 ft 506 kts 61°
2026-05-06 10:23 37.97570 113.55248 26621 ft 507 kts 62°
2026-05-06 10:23 37.99129 113.59267 26621 ft 507 kts 62°
2026-05-06 10:23 38.00659 113.63217 26609 ft 507 kts 61°
2026-05-06 10:24 38.02238 113.67300 26601 ft 506 kts 62°
2026-05-06 10:24 38.03797 113.71333 26584 ft 507 kts 62°
2026-05-06 10:24 38.05343 113.75341 26581 ft 507 kts 62°
2026-05-06 10:24 38.06894 113.79363 26572 ft 508 kts 62°
2026-05-06 10:25 38.08453 113.83417 26573 ft 507 kts 62°
2026-05-06 10:25 38.10001 113.87441 26550 ft 507 kts 62°
2026-05-06 10:25 38.11555 113.91491 26533 ft 506 kts 62°
2026-05-06 10:25 38.13073 113.95449 26537 ft 506 kts 62°
2026-05-06 10:26 38.14634 113.99526 26520 ft 507 kts 62°
2026-05-06 10:26 38.16177 114.03563 26503 ft 506 kts 62°
2026-05-06 10:26 38.17710 114.07577 26507 ft 507 kts 62°
2026-05-06 10:26 38.19261 114.11641 26507 ft 506 kts 62°
2026-05-06 10:27 38.20824 114.15725 26509 ft 507 kts 62°
2026-05-06 10:27 38.22380 114.19788 26509 ft 508 kts 62°
2026-05-06 10:27 38.23916 114.23805 26503 ft 509 kts 62°
2026-05-06 10:27 38.25465 114.27864 26499 ft 508 kts 62°
2026-05-06 10:28 38.27015 114.31928 26492 ft 508 kts 62°
2026-05-06 10:28 38.28557 114.35980 26499 ft 508 kts 62°
2026-05-06 10:28 38.30089 114.40007 26502 ft 508 kts 62°
2026-05-06 10:28 38.31643 114.44100 26491 ft 509 kts 62°
2026-05-06 10:29 38.33180 114.48153 26491 ft 509 kts 62°
2026-05-06 10:29 38.34723 114.52228 26492 ft 509 kts 62°
2026-05-06 10:29 38.36263 114.56300 26489 ft 508 kts 62°
2026-05-06 10:29 38.37791 114.60346 26488 ft 509 kts 62°
2026-05-06 10:30 38.39329 114.64425 26493 ft 508 kts 62°
2026-05-06 10:30 38.40879 114.68542 26478 ft 509 kts 63°
2026-05-06 10:30 38.42309 114.72343 26471 ft 509 kts 62°
2026-05-06 10:30 38.43519 114.75584 26476 ft 509 kts 63°
2026-05-06 10:31 38.45366 114.80526 26477 ft 509 kts 63°
2026-05-06 10:31 38.46911 114.84654 26474 ft 510 kts 63°
2026-05-06 10:31 38.48443 114.88753 26470 ft 510 kts 63°
2026-05-06 10:32 38.50001 114.92926 26466 ft 509 kts 63°
2026-05-06 10:32 38.51542 114.97061 26464 ft 510 kts 63°
2026-05-06 10:32 38.53046 115.01102 26470 ft 510 kts 63°
2026-05-06 10:32 38.54586 115.05244 26466 ft 510 kts 63°
2026-05-06 10:33 38.56123 115.09389 26457 ft 504 kts 63°
2026-05-06 10:33 38.57607 115.13423 26444 ft 489 kts 63°
2026-05-06 10:33 38.59049 115.17352 26389 ft 476 kts 62°
2026-05-06 10:33 38.60465 115.21210 25967 ft 472 kts 62°
2026-05-06 10:34 38.61863 115.25015 25594 ft 465 kts 62°
2026-05-06 10:34 38.63251 115.28784 24983 ft 466 kts 62°
2026-05-06 10:34 38.64651 115.32584 24198 ft 470 kts 62°
2026-05-06 10:34 38.66048 115.36388 23539 ft 470 kts 62°
2026-05-06 10:35 38.67450 115.40207 22946 ft 468 kts 62°
2026-05-06 10:35 38.68830 115.43973 22373 ft 466 kts 62°
2026-05-06 10:35 38.70198 115.47710 21793 ft 463 kts 62°
2026-05-06 10:35 38.71566 115.51450 21205 ft 461 kts 62°
2026-05-06 10:36 38.73084 115.55011 20614 ft 457 kts 57°
2026-05-06 10:36 38.74692 115.58483 20030 ft 455 kts 57°
2026-05-06 10:36 38.76324 115.61994 19437 ft 453 kts 57°
2026-05-06 10:36 38.77918 115.65427 18840 ft 451 kts 58°
2026-05-06 10:37 38.79517 115.68877 18229 ft 448 kts 58°
2026-05-06 10:37 38.81085 115.72269 17659 ft 445 kts 58°
2026-05-06 10:37 38.82653 115.75662 17058 ft 442 kts 59°
2026-05-06 10:37 38.84212 115.79044 16477 ft 439 kts 58°
2026-05-06 10:38 38.85762 115.82409 15888 ft 435 kts 58°
2026-05-06 10:38 38.87291 115.85731 15311 ft 431 kts 58°
2026-05-06 10:38 38.88795 115.89003 14738 ft 427 kts 58°
2026-05-06 10:38 38.90296 115.92274 14159 ft 423 kts 58°
2026-05-06 10:39 38.91789 115.95530 13590 ft 419 kts 58°
2026-05-06 10:39 38.93250 115.98719 12936 ft 406 kts 58°
2026-05-06 10:39 38.94656 116.01794 12454 ft 386 kts 57°
2026-05-06 10:39 38.96008 116.04755 11963 ft 369 kts 57°
2026-05-06 10:40 38.97365 116.07497 11466 ft 353 kts 47°
2026-05-06 10:40 38.99091 116.09618 10986 ft 333 kts 32°
2026-05-06 10:40 39.00957 116.11295 10531 ft 319 kts 29°
2026-05-06 10:40 39.02810 116.12847 10210 ft 302 kts 27°
2026-05-06 10:41 39.04527 116.14227 10136 ft 280 kts 26°
2026-05-06 10:41 39.06147 116.15511 10058 ft 262 kts 29°
2026-05-06 10:41 39.07493 116.17262 9986 ft 282 kts 54°
2026-05-06 10:41 39.08207 116.19666 9782 ft 292 kts 73°
2026-05-06 10:42 39.08543 116.22267 9373 ft 296 kts 78°
2026-05-06 10:42 39.08795 116.24912 8951 ft 298 kts 79°
2026-05-06 10:42 39.09043 116.27580 8566 ft 294 kts 78°
2026-05-06 10:42 39.09286 116.30157 8172 ft 284 kts 78°
2026-05-06 10:43 39.09522 116.32655 7866 ft 271 kts 78°
2026-05-06 10:43 39.09745 116.34999 7619 ft 257 kts 77°
2026-05-06 10:43 39.09957 116.37235 7601 ft 237 kts 77°
2026-05-06 10:44 39.10345 116.41286 7430 ft 216 kts 76°
2026-05-06 10:44 39.10760 116.42975 7335 ft 199 kts 49°
2026-05-06 10:44 39.11569 116.44010 7265 ft 189 kts 25°
2026-05-06 10:44 39.12893 116.44540 7023 ft 186 kts 360°
2026-05-06 10:45 39.14178 116.44523 6769 ft 185 kts 355°
2026-05-06 10:45 39.15477 116.44407 6535 ft 182 kts 353°
2026-05-06 10:45 39.16724 116.44250 6305 ft 180 kts 352°
2026-05-06 10:45 39.17967 116.44067 6081 ft 177 kts 352°
2026-05-06 10:46 39.19176 116.43872 5854 ft 174 kts 351°
2026-05-06 10:46 39.20386 116.43671 5633 ft 174 kts 352°
2026-05-06 10:46 39.21590 116.43471 5412 ft 174 kts 352°
2026-05-06 10:46 39.22772 116.43279 5187 ft 169 kts 352°
2026-05-06 10:47 39.23926 116.43094 4968 ft 164 kts 352°
2026-05-06 10:47 39.25056 116.42915 4754 ft 160 kts 352°
2026-05-06 10:47 39.26138 116.42745 4547 ft 155 kts 352°
2026-05-06 10:47 39.27212 116.42577 4337 ft 152 kts 353°
2026-05-06 10:48 39.28252 116.42414 4134 ft 148 kts 353°
2026-05-06 10:48 39.29274 116.42255 3932 ft 145 kts 353°
2026-05-06 10:48 39.30267 116.42100 3731 ft 142 kts 353°
2026-05-06 10:48 39.31229 116.41949 3538 ft 139 kts 353°
2026-05-06 10:49 39.32188 116.41798 3349 ft 136 kts 353°
2026-05-06 10:49 39.33127 116.41652 3161 ft 134 kts 353°
2026-05-06 10:49 39.34070 116.41505 2975 ft 137 kts 353°
2026-05-06 10:49 39.35014 116.41356 2779 ft 137 kts 354°
2026-05-06 10:50 39.35971 116.41207 2591 ft 135 kts 354°
2026-05-06 10:50 39.36932 116.41055 2393 ft 139 kts 354°
2026-05-06 10:50 39.37884 116.40906 2203 ft 138 kts 355°
2026-05-06 10:50 39.38841 116.40757 2001 ft 140 kts 355°
2026-05-06 10:51 39.39821 116.40603 1805 ft 141 kts 355°
2026-05-06 10:51 39.40795 116.40450 1611 ft 141 kts 355°
2026-05-06 10:51 39.41769 116.40297 1414 ft 142 kts 356°
2026-05-06 10:51 39.42759 116.40143 1219 ft 144 kts 355°
2026-05-06 10:52 39.43769 116.39983 1014 ft 145 kts 356°
2026-05-06 10:52 39.44776 116.39823 842 ft 146 kts 355°
2026-05-06 10:52 39.45794 116.39649 638 ft 149 kts 355°
2026-05-06 10:52 39.46836 116.39484 429 ft 150 kts 356°
2026-05-06 10:53 39.47879 116.39334 232 ft 152 kts 355°
2026-05-06 10:53 39.48886 116.39184 98 ft 143 kts 353°
2026-05-06 10:53 39.49731 116.39054 97 ft 99 kts 354°
2026-05-06 10:53 39.50055 116.38998 97 ft 30 kts 352°